[[{"header":{"parameterUnit":"m.s-1","parameterCategory":1,"la1":30.2992,"la2":30.254,"lo1":-89.0895,"lo2":-89.0443,"dy":0.0025,"dx":0.0025,"nx":19,"ny":19,"refTime":"2026-04-09T03:00:00:Z","depth":0,"parameterNumber":2,"parameterNumberName":"U-component_of_WINDS"},"data":[0,0,0,-3.8427,-3.8428,-3.8454,-3.8454,-3.8541,-3.8542,0,0,0,0,0,0,0,0,0,0,0,-3.8449,-3.8451,-3.8427,-3.8428,-3.8454,-3.8454,-3.8541,-3.8542,0,0,0,0,0,0,0,0,0,0,0,-3.8449,-3.8451,-3.8453,-3.8428,-3.8454,-3.8454,-3.854,-3.8502,0,0,0,0,0,0,0,0,0,0,-3.8468,-3.8518,-3.845,-3.8453,-3.8429,-3.8454,-3.8454,-3.8499,-3.8504,-3.8551,0,-3.8599,0,-3.8573,-3.8551,-3.8552,0,0,0,-3.8406,-3.8514,-3.8493,-3.8453,-3.8429,-3.8455,-3.8436,-3.8501,-3.8507,-3.8558,-3.86,-3.8602,-3.8574,-3.8552,-3.8553,-3.8896,-3.8898,0,0,-3.8404,-3.8471,-3.8489,-3.8499,-3.8496,-3.8436,-3.8437,-3.8504,-3.8555,-3.86,-3.8603,-3.8575,-3.8553,-3.8554,-3.8893,-3.8896,0,0,0,-3.8415,-3.8471,-3.8447,-3.8496,-3.8497,-3.8437,-3.8439,-3.8552,-3.8538,-3.8604,-3.8576,-3.8554,-3.8555,-3.889,-3.8894,-3.9091,0,0,0,-3.8413,-3.8477,-3.8448,-3.8489,-3.8497,-3.8524,-3.8486,-3.8534,-3.8539,-3.8576,-3.8554,-3.8557,-3.8887,-3.8892,-3.9079,-3.9173,0,0,0,-3.8437,-3.8479,-3.8493,-3.8492,-3.8506,-3.8522,-3.8511,-3.8533,-3.8524,-3.8552,-3.8557,-3.8885,-3.8891,-3.9068,-3.9155,-3.9284,0,0,0,-3.8482,-3.8667,-3.8498,-3.8694,-3.8506,-3.8643,-3.851,-3.8608,-3.8656,-3.8554,-3.8887,-3.8894,-3.9065,-3.9144,-3.9273,-3.9405,-3.9465,0,0,-3.8752,-3.8702,-3.8812,-3.8661,-3.8845,-3.8633,-3.8846,-3.8826,-3.8768,-3.8857,-3.8864,-3.9083,-3.9154,-3.9281,-3.9781,-3.983,0,0,0,-3.892,-3.9,-3.9034,-3.9082,-3.9072,-3.9071,-3.9012,-3.9005,-3.9077,-3.8827,-3.9161,-3.9201,-3.9274,-3.9334,-3.9375,-3.9434,-3.8924,-3.8923,-3.8923,-3.9397,-3.9314,-3.9491,-3.9412,-3.9461,-3.9399,-3.9431,-3.9411,-3.9312,-3.9393,-3.9419,-3.9732,-3.9805,-3.9836,-3.9898,-3.9481,-3.9482,-3.9482,-3.9483,-3.9786,-3.9887,-3.9753,-3.9876,-3.9788,-3.9892,-3.9841,-3.9768,-3.9853,-3.9705,-3.9764,-3.9612,-3.9892,-3.9942,-3.9497,-3.9494,-3.9492,-3.9491,-3.949,-4.009,-4.0124,-4.0113,-4.0175,-4.0234,-4.0147,-4.0236,-4.0151,-4.0073,-4.0132,-4.0152,-4.0148,-4.0135,-4.0147,-4.0148,-4.0149,-4.015,-4.0151,-4.0152,-4.041,-4.0391,-4.0475,-4.0482,-4.0503,-4.0521,-4.0463,-4.0482,-4.0482,-4.0414,-4.0413,-4.0309,-3.9934,-3.9843,-4.0168,-4.0165,-4.0163,-4.0161,-4.016,-4.0837,-4.0728,-4.0858,-4.088,-4.0882,-4.0948,-4.0839,-4.0886,-4.089,-4.0937,-4.082,-4.0556,-4.0498,-4.0465,-4.0389,-4.0835,-4.0835,-4.0835,-4.0836,-4.1095,-4.1057,-4.1173,-4.1214,-4.1244,-4.116,-4.1314,-4.1272,-4.1212,-4.121,-4.1133,-4.1024,-4.0994,-4.0954,-4.091,-4.0838,-4.1389,-4.1389,-4.139,-4.1354,-4.1316,-4.1461,-4.14,-4.1397,-4.1397,-4.1539,-4.1593,-4.1501,-4.1411,-4.1207,-4.1184,-4.1007,-4.0954,-4.0859,-4.0792,-4.0657,0,0]},{"header":{"parameterUnit":"m.s-1","parameterCategory":1,"la1":30.2992,"la2":30.254,"lo1":-89.0895,"lo2":-89.0443,"dy":0.0025,"dx":0.0025,"nx":19,"ny":19,"refTime":"2026-04-09T03:00:00:Z","depth":0,"parameterNumber":3,"parameterNumberName":"V-component_of_WINDS"},"data":[0,0,0,1.4879,1.4879,1.4883,1.4883,1.4875,1.4875,0,0,0,0,0,0,0,0,0,0,0,1.4872,1.4872,1.4879,1.4879,1.4883,1.4883,1.4875,1.4875,0,0,0,0,0,0,0,0,0,0,0,1.4872,1.4872,1.4872,1.4879,1.4883,1.4883,1.4875,1.4876,0,0,0,0,0,0,0,0,0,0,1.4875,1.4863,1.4872,1.4872,1.4879,1.4883,1.4883,1.4877,1.4876,1.4869,0,1.4862,0,1.4868,1.4874,1.4874,0,0,0,1.4883,1.4863,1.487,1.4872,1.4879,1.4883,1.4882,1.4877,1.4876,1.4868,1.4862,1.4862,1.4868,1.4874,1.4874,1.4821,1.4821,0,0,1.4883,1.4869,1.487,1.4869,1.487,1.4882,1.4882,1.4877,1.4868,1.4862,1.4862,1.4868,1.4874,1.4874,1.4822,1.4821,0,0,0,1.488,1.4869,1.4876,1.4869,1.4871,1.4882,1.4882,1.4868,1.4872,1.4862,1.4868,1.4874,1.4873,1.4822,1.4821,1.4787,0,0,0,1.488,1.4867,1.4876,1.4867,1.4871,1.487,1.4874,1.4872,1.4872,1.4868,1.4874,1.4873,1.4823,1.4822,1.4789,1.4772,0,0,0,1.4874,1.4866,1.4865,1.4866,1.4868,1.487,1.4874,1.4872,1.4876,1.4874,1.4873,1.4823,1.4822,1.4791,1.4775,1.4754,0,0,0,1.4863,1.4833,1.4864,1.4833,1.4868,1.485,1.4874,1.4861,1.4856,1.4873,1.4823,1.4822,1.4791,1.4777,1.4756,1.4732,1.4722,0,0,1.4817,1.4827,1.481,1.4838,1.4812,1.4851,1.4819,1.4826,1.4837,1.4826,1.4825,1.4788,1.4775,1.4754,1.4671,1.4663,0,0,0,1.4791,1.4778,1.4774,1.477,1.4776,1.478,1.4794,1.4797,1.4788,1.4829,1.4776,1.4769,1.4757,1.4746,1.4739,1.4729,1.4817,1.4817,1.4817,1.4704,1.4723,1.4696,1.4715,1.4711,1.4727,1.4724,1.473,1.4749,1.4736,1.4732,1.468,1.4667,1.4662,1.4651,1.4723,1.4723,1.4723,1.4723,1.4637,1.4622,1.4651,1.4635,1.4654,1.464,1.4655,1.4669,1.4658,1.4684,1.4674,1.4699,1.4652,1.4644,1.472,1.4721,1.4721,1.4721,1.4721,1.4581,1.4577,1.4583,1.4579,1.4574,1.4595,1.4584,1.4602,1.4619,1.461,1.4607,1.4608,1.4609,1.4608,1.4608,1.4608,1.4608,1.4607,1.4607,1.4519,1.4527,1.4516,1.4523,1.4523,1.4525,1.4543,1.4543,1.4547,1.4561,1.4561,1.458,1.4645,1.4659,1.4604,1.4605,1.4605,1.4606,1.4606,1.4441,1.4462,1.4445,1.4446,1.4455,1.4448,1.4474,1.4473,1.4475,1.4469,1.4492,1.4537,1.4547,1.4553,1.4565,1.4489,1.4489,1.4489,1.4489,1.4391,1.44,1.4388,1.4387,1.4389,1.4411,1.439,1.4404,1.4421,1.4424,1.4438,1.4456,1.4462,1.4469,1.4476,1.4488,1.4394,1.4394,1.4393,1.4344,1.4354,1.4333,1.4352,1.4362,1.4369,1.435,1.4347,1.4371,1.439,1.4426,1.443,1.446,1.4469,1.4486,1.4497,1.4519,0,0]}]]